Location: Unspecified
(0.0000°N, 0.0000°E)
Time: 03:34:28
(UTC+02:00)

Cosmos 2228 - Visible Passes

Search period start: 25 June 2016 00:00
Search period end: 05 July 2016 00:00
Orbit: 592 x 619 km, 82.5° (Epoch: 24 June)

Date Brightness Start Highest point End Pass type
(mag) Time Alt. Az. Time Alt. Az. Time Alt. Az.
25 Jun 3.5 06:53:05 10° S 06:57:24 64° E 07:01:45 10° NNE visible
26 Jun 3.0 07:06:13 10° SSW 07:10:32 62° W 07:14:52 10° N visible
27 Jun 3.9 07:19:49 10° SSW 07:23:39 30° W 07:27:30 10° NNW visible
28 Jun 5.5 05:56:19 10° SE 05:59:30 20° E 06:02:41 10° NE visible
28 Jun 4.7 07:34:11 10° WSW 07:36:48 15° W 07:39:23 10° NW visible
29 Jun 4.3 06:10:23 22° SSE 06:12:37 39° E 06:16:42 10° NNE visible
30 Jun 3.0 06:24:23 44° S 06:25:45 81° E 06:30:07 10° N visible
01 Jul 3.2 06:38:22 46° WSW 06:38:52 48° W 06:43:06 10° NNW visible
02 Jul 6.1 05:15:22 12° E 05:15:22 12° E 05:16:32 10° ENE visible
02 Jul 4.2 06:52:18 24° W 06:52:18 24° W 06:55:33 10° NNW visible
03 Jul 5.5 05:29:16 21° ENE 05:29:16 21° ENE 05:31:23 10° NE visible
03 Jul 5.1 07:06:11 11° WNW 07:06:11 11° WNW 07:06:56 10° WNW visible
04 Jul 5.0 05:43:06 26° NNE 05:43:06 26° NNE 05:45:11 10° NNE visible
